Ohio State University, OH

4:00 AM EDT on April 29, 2017 (GMT -0400)
Ohio State University

Weather History for KOSU - January, 2013

Change the Weather History Date:

Saturday, January 26, 2013

  Actual Average Record
Temperature  
Mean Temperature 22 °F -  
Max Temperature 27 °F 34 °F 53 °F (2004)
Min Temperature 18 °F 18 °F 3 °F (2000)
Degree Days  
Heating Degree Days 42    
Moisture  
Dew Point 18 °F    
Average Humidity 77    
Maximum Humidity 88    
Minimum Humidity 66    
Precipitation  
Precipitation 0.00 in - - ()
Sea Level Pressure  
Sea Level Pressure 30.28 in    
Wind  
Wind Speed 8 mph (WNW)    
Max Wind Speed 12 mph    
Max Gust Speed -    
Visibility 8 miles    
Events Snow    
Averages and records for this station are not official NWS values.
T = Trace of Precipitation, MM = Missing Value Source: NWS Daily Summary

Daily Weather History Graph

Daily Weather History Graph

Search for Another Location

Airport or City:

Trip Planner

Search our weather history database for the weather conditions in past years. The results will help you decide how hot, cold, wet, or windy it might be!

Date:

Astronomy

Jan. 26, 2013 Rise Set
Actual Time 7:45 AM EST 5:44 PM EST
Civil Twilight 7:16 AM EST 6:13 PM EST
Nautical Twilight 6:44 AM EST 6:46 PM EST
Astronomical Twilight 6:12 AM EST 7:18 PM EST
Moon 5:38 PM EST (1/26) 7:03 AM EST (1/26)
Length of Visible Light 10h 56m
Length of Day
9h 58m
Full, 100% of the Moon is Illuminated
Jan 26
Full
Jan 26
Full
Feb 3
Last Quarter
Feb 10
New
Feb 17
First Quarter

Hourly Weather History & Observations

Time (EST) Temp. Windchill Dew Point Humidity Pressure Visibility Wind Dir Wind Speed Gust Speed Precip Events Conditions
12:53 AM 23.0 °F 15.8 °F 19.9 °F 88% 30.13 in 5.0 mi SSW 5.8 mph - 0.00 in Snow Light Snow
1:53 AM 24.1 °F 17.0 °F 19.9 °F 84% 30.13 in 7.0 mi SW 5.8 mph - N/A   Overcast
2:53 AM 25.0 °F 14.8 °F 19.9 °F 81% 30.14 in 8.0 mi SW 10.4 mph - N/A   Overcast
3:53 AM 26.1 °F 16.2 °F 21.0 °F 81% 30.14 in 8.0 mi SW 10.4 mph - N/A   Overcast
4:53 AM 26.1 °F 16.8 °F 21.0 °F 81% 30.15 in 7.0 mi WSW 9.2 mph - N/A   Overcast
5:13 AM 24.8 °F 15.3 °F 21.2 °F 86% 30.11 in 7.0 mi WSW 9.2 mph - N/A   Overcast
5:53 AM 25.0 °F 16.3 °F 21.0 °F 85% 30.15 in 7.0 mi West 8.1 mph - N/A   Overcast
6:21 AM 24.8 °F 16.1 °F 19.4 °F 80% 30.12 in 8.0 mi West 8.1 mph - N/A   Overcast
6:53 AM 24.1 °F 14.4 °F 19.0 °F 81% 30.18 in 8.0 mi West 9.2 mph - N/A   Overcast
7:53 AM 24.1 °F 15.2 °F 19.0 °F 81% 30.22 in 6.0 mi West 8.1 mph - N/A   Haze
8:04 AM 24.8 °F 16.1 °F 19.4 °F 80% 30.18 in 5.0 mi West 8.1 mph - N/A   Haze
8:53 AM 24.1 °F 15.2 °F 19.9 °F 84% 30.25 in 4.0 mi West 8.1 mph - N/A   Overcast
9:30 AM 24.8 °F 16.9 °F 21.2 °F 86% 30.22 in 3.0 mi WNW 6.9 mph - 0.00 in Snow Light Snow
9:53 AM 25.0 °F 16.3 °F 21.9 °F 88% 30.27 in 3.0 mi NW 8.1 mph - 0.00 in Snow Light Snow
10:03 AM 24.8 °F 14.6 °F 21.2 °F 86% 30.24 in 3.0 mi NW 10.4 mph - 0.00 in Snow Light Snow
10:12 AM 26.6 °F 17.5 °F 21.2 °F 80% 30.24 in 3.0 mi NW 9.2 mph - 0.00 in Snow Light Snow
10:53 AM 26.1 °F 16.8 °F 21.0 °F 81% 30.30 in 5.0 mi WNW 9.2 mph - 0.00 in   Haze
11:08 AM 26.6 °F 16.8 °F 21.2 °F 80% 30.27 in 5.0 mi WNW 10.4 mph - N/A   Haze
11:53 AM 27.0 °F 18.0 °F 19.0 °F 72% 30.32 in 8.0 mi NW 9.2 mph - N/A   Overcast
12:53 PM 27.0 °F 16.7 °F 19.0 °F 72% 30.33 in 9.0 mi NW 11.5 mph - N/A   Mostly Cloudy
1:37 PM 26.6 °F 19.1 °F 17.6 °F 69% 30.28 in 10.0 mi NW 6.9 mph - N/A   Overcast
1:53 PM 27.0 °F 18.7 °F 18.0 °F 69% 30.32 in 10.0 mi North 8.1 mph - N/A   Overcast
2:22 PM 26.6 °F 16.8 °F 17.6 °F 69% 30.28 in 10.0 mi NNW 10.4 mph - N/A   Overcast
2:53 PM 27.0 °F 18.7 °F 17.1 °F 66% 30.33 in 10.0 mi NW 8.1 mph - N/A   Overcast
3:50 PM 26.6 °F 20.0 °F 17.6 °F 69% 30.32 in 10.0 mi NW 5.8 mph - N/A   Overcast
3:53 PM 26.1 °F 19.4 °F 18.0 °F 71% 30.35 in 10.0 mi NW 5.8 mph - N/A   Overcast
4:53 PM 25.0 °F 16.3 °F 17.1 °F 72% 30.38 in 10.0 mi NNW 8.1 mph - N/A   Overcast
5:53 PM 25.0 °F 15.5 °F 16.0 °F 69% 30.41 in 10.0 mi NNW 9.2 mph - N/A   Overcast
6:53 PM 24.1 °F 18.2 °F 15.1 °F 69% 30.43 in 10.0 mi NNW 4.6 mph - N/A   Overcast
7:53 PM 24.1 °F 14.4 °F 16.0 °F 71% 30.44 in 10.0 mi North 9.2 mph - N/A   Overcast
8:53 PM 21.0 °F 14.6 °F 14.0 °F 74% 30.45 in 10.0 mi NNE 4.6 mph - N/A   Overcast
9:53 PM 19.0 °F - 12.9 °F 77% 30.47 in 10.0 mi Calm Calm - N/A   Clear
10:53 PM 18.0 °F - 12.9 °F 81% 30.47 in 10.0 mi Calm Calm - N/A   Clear
11:53 PM 19.9 °F 13.4 °F 12.0 °F 71% 30.47 in 10.0 mi SSE 4.6 mph - N/A   Clear